Theta_e
356 355 354 355 354 353 351 350 350 348 347 346 344 343 343 342 343 344 344 345 344 338 335 336 336 335 336 335 333 333 335 335 342 349 351 351 352 351 349 347 346 347 348 346 345 346 346 345 346 345 345 346 346 347 346 345 346 347 347 346 346 344 339
356 356 355 355 355 354 353 352 351 349 347 347 346 344 345 345 345 345 346 347 348 343 335 331 331 332 334 337 336 334 335 334 337 343 348 350 351 351 349 347 346 346 348 348 346 348 349 348 347 346 346 346 346 347 345 346 347 346 346 347 349 348 344
355 356 356 356 356 354 353 352 351 350 348 348 348 347 346 347 347 348 348 347 349 348 340 330 326 326 328 332 336 336 336 336 335 338 342 345 347 349 349 348 346 346 349 351 351 350 351 352 350 349 349 346 346 347 345 345 346 346 346 346 347 348 347
353 355 355 356 357 356 354 352 351 351 350 349 349 349 347 348 350 350 350 348 349 350 346 337 329 327 327 328 329 331 333 334 335 336 338 339 341 345 349 349 346 347 351 354 354 354 353 354 353 352 350 347 346 346 345 345 345 344 345 345 344 345 346
351 354 354 356 357 357 356 354 353 351 351 351 350 350 349 348 350 352 352 351 350 350 350 346 338 333 332 330 328 326 327 328 331 333 335 337 337 340 346 348 346 345 348 352 354 354 353 353 353 352 350 348 346 344 345 346 344 343 344 345 345 343 344
349 350 352 354 355 355 355 354 353 351 351 351 350 351 350 349 350 351 353 354 353 352 352 352 348 342 338 334 329 326 325 326 327 329 330 333 336 338 341 345 347 345 345 349 351 351 351 353 352 351 349 348 346 343 344 346 345 345 344 345 346 343 344
346 348 350 352 353 353 353 352 352 352 352 351 350 351 351 351 351 350 351 354 355 354 354 354 354 350 346 340 333 329 328 329 330 330 329 330 333 339 342 345 348 350 348 349 351 349 350 353 354 352 349 346 343 342 342 343 344 345 344 344 345 344 344
344 347 348 350 351 352 352 353 352 352 352 352 352 353 352 352 353 351 351 353 354 355 356 356 356 355 354 351 344 337 335 335 336 336 335 332 331 338 347 348 349 350 350 350 349 349 349 350 352 353 349 344 340 340 340 340 341 343 344 344 345 345 344
343 344 345 346 346 348 351 352 353 354 354 354 355 355 354 354 354 353 352 352 353 357 358 358 358 357 357 357 354 350 348 346 346 344 342 340 335 336 345 351 350 349 350 350 350 349 349 348 349 350 349 345 341 340 341 343 344 344 343 343 345 345 344
342 342 342 343 343 346 348 350 352 354 355 355 355 356 355 353 354 354 353 352 353 356 356 357 357 357 356 357 356 356 356 355 354 352 349 345 342 337 339 346 350 350 349 349 349 350 349 348 348 349 349 347 344 343 345 348 349 349 347 344 344 344 345
340 340 340 341 341 343 345 346 348 350 353 354 354 355 355 354 354 354 353 352 352 353 353 353 353 355 356 355 354 355 356 356 356 356 355 353 350 346 342 343 347 349 350 349 348 349 349 349 348 349 349 348 347 345 347 349 350 351 351 348 345 343 343
338 339 339 338 339 340 342 343 343 344 348 351 352 353 353 354 354 354 354 353 352 352 351 350 351 352 354 354 353 354 355 356 355 356 357 357 356 354 350 347 347 348 349 348 347 347 348 349 348 348 348 348 347 346 347 349 349 349 350 349 347 344 343
336 337 337 336 336 336 337 339 340 341 344 346 349 350 350 352 353 353 353 352 352 352 351 350 351 351 351 351 351 353 354 355 355 355 356 356 355 355 352 349 348 348 348 347 347 346 346 347 348 348 348 347 346 345 345 346 347 346 347 347 345 343 342
336 336 336 336 336 335 335 336 336 338 341 343 345 346 347 349 349 349 350 350 350 350 350 350 350 350 350 350 351 352 354 355 355 355 355 354 353 353 352 350 348 348 347 346 348 347 346 346 346 347 348 347 346 345 344 344 343 341 341 342 341 339 339
335 335 335 335 335 335 335 335 334 335 337 340 342 342 343 344 343 343 345 348 348 348 349 350 350 349 350 350 350 351 352 354 355 355 355 355 353 351 351 350 349 347 346 345 347 349 349 347 345 345 346 346 346 345 344 344 341 337 335 334 335 335 336
334 334 334 334 334 334 334 334 334 334 334 336 339 340 340 341 341 341 342 344 345 347 349 351 351 350 350 351 351 350 350 351 353 354 355 356 355 353 351 350 348 347 346 345 345 347 349 349 346 344 344 344 345 345 344 344 342 340 336 332 330 330 332
333 333 332 332 333 333 333 333 333 333 333 333 335 337 339 339 339 341 341 341 343 345 347 349 350 351 350 351 352 351 350 350 351 352 354 354 354 354 353 351 349 347 346 345 345 344 345 347 347 346 345 344 343 343 343 344 343 343 342 339 335 330 329
332 332 331 331 331 331 332 332 332 332 332 332 332 334 336 337 338 340 341 340 339 340 342 344 346 347 348 349 351 351 350 350 350 350 352 352 352 353 353 351 350 349 347 346 346 344 342 343 345 345 345 346 345 344 343 343 344 344 344 344 342 338 334
330 330 330 329 329 329 330 331 331 331 331 331 332 332 333 334 335 337 339 338 336 334 336 339 341 343 345 346 347 349 350 350 350 350 351 352 352 353 353 351 349 350 349 348 348 348 345 343 343 343 344 346 347 347 345 345 345 345 345 346 345 344 342
328 329 328 327 325 326 328 329 329 330 329 330 331 331 331 333 333 334 335 336 334 329 328 333 337 338 340 342 343 344 345 347 349 350 350 351 352 352 353 352 351 351 351 350 350 349 348 346 344 343 343 344 346 347 348 348 348 348 348 348 348 347 346
326 327 327 326 323 323 325 326 327 328 328 328 330 330 330 330 331 332 333 335 333 326 322 325 329 331 334 338 340 340 340 342 344 347 349 350 351 352 352 352 352 352 352 351 350 350 350 348 347 345 345 345 346 347 346 347 348 349 350 351 351 350 349
325 325 325 325 323 322 323 324 325 326 325 326 328 330 330 329 328 327 330 334 332 324 319 320 321 323 328 333 337 339 339 338 338 341 345 347 348 349 350 351 351 351 352 352 351 350 350 349 347 346 346 346 346 346 346 346 345 347 349 351 351 351 351
323 324 324 324 322 321 322 324 324 324 324 324 326 329 331 330 327 323 323 330 331 325 318 319 319 318 321 326 331 334 334 334 334 336 339 343 345 347 347 348 349 349 351 352 352 352 351 350 349 348 347 347 347 347 347 347 347 347 347 348 350 351 350
322 322 323 323 321 321 322 323 323 324 324 324 324 326 328 328 328 322 317 323 330 326 320 319 318 317 318 319 322 325 326 330 334 335 336 337 339 341 344 346 347 347 348 350 351 352 353 352 352 351 350 349 349 349 349 349 349 349 349 348 349 350 351
321 321 322 321 321 322 323 322 323 324 325 324 324 325 325 324 324 319 314 322 330 328 324 322 319 317 317 317 318 320 320 324 331 335 337 336 334 334 337 340 344 346 347 349 350 350 352 354 353 353 353 352 351 351 351 350 350 351 351 352 351 351 351
321 321 321 320 321 322 322 322 322 324 324 323 324 324 322 320 318 314 314 323 329 329 329 328 322 318 317 316 317 318 318 320 324 328 333 336 335 333 333 333 336 339 341 343 345 345 348 351 353 354 354 353 353 352 352 352 351 351 351 352 353 353 353
321 321 321 321 322 322 321 321 322 323 322 322 322 322 320 318 317 315 317 323 327 328 330 330 326 323 321 317 316 317 317 317 319 320 325 332 336 336 334 332 333 335 336 337 338 339 342 346 348 351 353 354 354 354 354 354 353 353 352 352 352 352 353
321 321 321 321 322 321 321 320 320 319 319 319 319 318 317 318 317 316 317 322 324 325 328 329 328 328 326 322 319 317 317 316 317 319 322 328 332 332 332 332 334 337 337 337 337 337 339 340 342 344 346 348 350 351 352 353 353 353 354 354 353 353 353
321 321 321 321 321 320 320 319 318 317 317 317 316 315 316 317 316 316 318 320 320 319 320 324 328 329 329 327 323 320 318 315 318 323 325 324 323 323 327 333 336 337 337 337 336 337 338 339 341 343 344 345 346 347 348 349 351 352 352 352 352 352 351
321 320 320 320 320 320 319 318 317 317 317 317 317 316 316 316 315 316 319 320 320 320 319 321 326 329 329 329 327 324 319 315 318 327 330 325 322 321 324 330 332 331 334 336 337 338 339 340 341 342 342 343 345 347 349 349 349 350 351 351 351 351 352
319 319 319 319 319 318 318 317 317 318 318 319 319 318 318 318 317 317 319 319 321 324 323 322 325 328 328 328 327 326 323 316 317 326 329 326 325 324 323 323 323 324 328 334 337 337 336 334 334 334 334 335 336 341 347 350 351 351 351 351 352 352 354
318 318 318 318 317 317 316 316 317 318 318 319 319 319 319 319 319 320 320 320 320 322 322 322 322 325 327 327 327 327 325 319 319 326 329 327 327 326 323 321 321 322 324 326 328 328 325 323 324 326 327 328 328 331 336 341 346 349 351 352 352 353 355
317 317 317 316 316 316 316 316 317 317 317 318 318 318 318 319 319 320 321 321 321 321 321 321 320 321 324 326 326 327 325 322 322 328 329 328 327 326 322 320 321 321 319 317 317 319 319 319 321 321 323 324 325 327 329 331 334 339 345 351 353 353 354
316 316 315 315 315 315 316 317 317 317 317 317 318 317 317 317 318 319 320 320 321 322 322 322 321 322 323 324 325 326 325 323 324 327 327 326 326 324 320 318 318 317 316 315 315 316 318 320 320 320 320 321 322 324 327 328 330 332 336 343 348 351 353
315 315 314 315 315 316 316 316 316 316 316 317 317 316 316 317 318 319 320 320 321 321 322 322 322 323 323 324 324 325 324 324 325 325 324 324 323 320 318 316 316 316 315 314 315 317 319 322 321 319 319 320 320 322 324 325 328 330 332 335 339 343 347
314 314 314 315 315 315 316 316 316 316 316 316 315 314 314 317 319 320 320 320 320 321 321 322 322 323 323 324 325 325 325 325 325 325 324 323 321 319 318 316 317 319 319 318 316 316 319 321 320 318 319 320 320 322 323 324 326 328 330 331 332 335 337
313 313 314 314 315 315 316 316 316 315 315 314 313 313 314 318 320 320 320 321 321 321 321 321 321 322 323 324 325 326 325 325 324 324 323 322 321 320 319 318 318 319 320 318 316 315 315 316 317 317 320 322 323 322 323 324 326 328 328 329 330 331 333
313 313 313 314 315 315 316 315 315 314 314 313 313 313 314 317 319 319 320 320 321 321 321 321 321 322 323 324 325 325 325 325 324 323 322 322 321 320 320 319 319 318 317 316 315 314 313 313 315 318 322 325 327 326 324 323 324 325 326 326 327 328 330
Wind_Speed
17 15 14 15 17 20 23 24 24 28 30 26 28 31 27 27 29 26 24 21 20 22 25 24 23 22 21 20 20 19 18 18 18 19 16 14 14 13 13 12 11 10 10 10 10 10 10 10 11 11 10 10 10 10 10 10 11 12 11 11 11 9 10
16 14 14 13 15 18 21 23 24 28 32 28 27 29 28 26 27 26 23 21 18 18 23 25 24 22 22 20 20 19 19 19 18 19 18 16 14 14 13 12 12 11 10 9 9 9 9 9 11 10 9 9 10 9 9 10 11 11 11 12 11 10 9
15 14 12 10 11 14 17 21 23 27 32 31 28 28 29 26 24 25 25 21 19 17 19 24 25 23 22 21 20 20 19 19 18 18 19 17 16 15 13 12 12 12 10 9 8 8 9 9 10 10 9 9 10 10 10 10 10 11 11 11 12 11 9
13 12 10 8 9 11 14 17 19 22 27 30 30 28 29 27 21 23 25 23 20 18 17 20 23 23 23 22 22 21 20 19 19 18 18 17 16 16 14 13 12 12 11 11 9 9 10 11 11 10 9 10 10 10 10 9 9 10 10 11 11 11 10
12 12 11 8 7 9 12 13 16 19 21 25 29 28 28 27 22 22 24 23 21 19 16 17 20 22 22 21 22 22 21 20 19 18 18 17 16 16 16 15 13 12 13 13 13 13 12 13 13 12 10 11 10 10 10 9 10 10 10 10 10 10 10
10 8 9 10 8 6 9 12 15 18 19 22 25 26 26 26 24 22 21 21 22 21 17 17 19 22 22 21 21 21 21 20 19 19 18 18 17 16 16 15 14 13 12 13 13 13 13 13 13 13 13 12 11 10 10 10 10 10 10 10 10 10 10
13 9 7 9 8 6 7 11 16 17 17 19 21 22 24 23 23 23 21 19 21 22 21 20 20 21 22 21 20 20 20 19 19 18 18 18 18 17 15 14 14 13 12 13 13 12 13 14 14 14 14 14 13 11 11 11 11 11 11 11 10 9 10
15 15 12 9 7 7 8 10 14 15 14 18 18 17 18 18 18 21 22 20 21 22 22 22 21 20 22 21 20 19 19 18 17 17 17 17 18 18 17 15 15 15 14 14 14 14 13 15 16 16 15 14 14 13 12 11 11 11 11 12 11 10 10
14 16 15 14 12 10 11 12 13 14 14 16 15 12 14 17 17 18 19 19 20 22 24 24 22 21 22 23 22 19 18 18 16 15 15 16 17 18 19 18 16 16 16 15 15 15 14 14 16 17 16 14 13 13 13 13 11 11 11 12 12 12 11
14 14 14 15 15 11 10 13 15 16 15 15 13 11 14 18 16 16 17 17 16 17 19 22 24 24 23 24 23 21 21 19 18 17 15 15 16 16 18 19 18 17 17 17 17 16 16 15 15 16 16 15 15 14 13 14 13 13 12 12 12 13 13
16 15 15 15 14 11 9 10 12 14 14 14 13 11 12 14 11 10 12 14 16 15 14 16 19 23 24 25 24 23 22 21 20 19 18 16 15 15 15 17 18 18 18 18 18 19 18 17 16 16 16 16 16 15 14 15 15 15 15 14 13 13 13
16 17 18 18 17 14 11 9 8 10 12 13 12 12 13 13 12 12 11 9 11 13 13 13 15 17 19 22 23 23 23 24 22 21 20 19 18 17 16 16 16 18 19 19 18 19 19 19 18 18 18 18 17 16 16 17 18 18 17 17 16 14 13
17 19 20 20 20 19 17 14 10 7 8 11 12 13 14 14 13 12 12 11 9 8 8 8 10 13 11 13 18 21 22 24 24 23 22 20 19 19 20 19 17 17 19 20 20 18 18 20 21 19 18 18 18 18 17 18 19 19 20 20 19 17 16
19 19 19 19 20 20 19 18 18 14 8 7 8 10 14 14 10 8 9 9 8 7 6 7 7 9 7 6 10 15 19 21 23 24 24 23 22 21 21 22 20 19 18 20 22 22 18 18 21 21 20 19 18 19 18 19 20 20 21 22 22 20 19
19 19 18 18 18 19 18 18 20 22 18 12 8 6 9 11 8 6 4 4 4 4 4 5 6 8 7 5 6 9 14 18 20 21 23 24 24 23 22 23 22 21 18 17 21 25 22 19 21 22 22 21 20 19 19 20 20 20 21 21 22 22 21
18 18 17 16 17 17 18 19 19 22 24 22 16 10 10 15 17 13 8 3 5 4 1 5 6 8 9 7 4 5 10 15 18 19 20 21 23 24 24 24 23 24 22 17 18 23 25 23 23 23 23 23 22 21 20 20 20 19 19 20 21 22 22
19 18 17 16 17 16 18 20 20 20 22 23 22 18 16 19 21 20 18 15 10 5 3 1 3 6 9 9 6 2 4 10 14 17 18 18 19 21 24 25 24 24 24 21 19 21 23 23 23 24 23 23 24 24 23 22 21 20 18 19 20 21 22
20 18 17 16 16 16 17 19 20 20 20 20 21 20 19 19 21 21 21 21 19 13 6 3 3 3 5 6 4 0 2 4 8 11 14 14 14 15 18 22 24 24 24 23 22 22 23 23 23 24 24 23 23 25 25 23 21 21 20 19 19 20 21
19 18 17 16 16 15 16 18 20 19 19 18 18 18 18 20 21 21 19 18 19 18 15 12 9 7 5 3 2 2 3 3 4 6 8 9 10 11 12 14 18 20 21 22 23 23 24 25 25 25 26 25 23 24 26 26 23 22 22 20 19 19 20
18 16 15 14 14 15 16 18 19 18 17 17 17 16 16 18 20 20 20 18 18 20 21 19 16 14 11 6 2 1 2 3 4 5 5 6 7 9 10 11 12 13 15 18 22 24 25 26 27 27 27 28 26 25 25 25 24 24 23 23 22 21 20
19 16 14 13 13 15 17 18 18 16 15 15 17 16 15 15 18 20 21 19 17 19 22 21 20 20 18 14 10 8 7 4 2 5 6 6 7 9 10 12 13 14 14 15 19 22 23 24 25 27 28 29 29 29 27 26 24 23 22 22 23 25 25
19 16 15 14 13 13 16 17 17 15 13 15 17 16 15 14 14 17 20 18 15 17 21 21 21 20 20 17 16 14 13 12 8 3 3 6 9 9 9 10 12 13 14 15 17 19 21 22 24 26 29 32 32 31 31 30 29 27 25 22 21 24 27
17 15 15 15 13 13 14 15 15 13 12 14 17 15 13 12 12 14 17 17 15 16 17 19 19 19 18 16 16 15 14 14 13 10 6 2 6 9 10 11 11 11 11 13 16 17 19 21 23 25 28 33 35 33 32 32 32 32 31 29 27 26 27
16 13 12 12 12 12 12 13 14 12 10 11 13 13 10 9 10 13 16 17 16 16 16 16 17 18 17 16 14 15 15 13 12 13 11 7 4 3 7 10 12 12 11 11 14 16 18 20 21 23 25 29 32 34 34 35 34 34 34 35 35 34 32
16 13 11 10 11 12 11 10 12 12 10 9 10 9 7 6 8 11 14 15 14 15 15 15 16 16 16 15 14 13 13 12 11 11 12 11 9 7 5 6 9 12 13 13 13 15 17 19 20 21 23 25 28 31 33 35 35 35 36 37 38 38 38
10 9 11 11 9 9 9 8 9 10 10 9 8 7 6 7 9 10 12 12 11 13 14 14 15 15 14 13 12 12 12 11 10 9 9 9 9 9 9 8 6 8 11 14 15 15 16 18 20 21 22 23 24 26 29 31 33 33 35 35 36 36 36
8 7 10 9 6 5 5 5 5 6 7 6 5 6 7 8 9 9 10 9 8 10 11 11 13 14 14 13 11 11 10 9 10 10 7 6 7 8 10 10 9 7 6 8 11 14 15 16 17 19 21 21 21 22 23 25 27 28 29 30 30 31 32
11 10 9 7 4 2 1 3 3 4 5 5 6 7 7 8 8 7 8 7 6 7 6 7 10 12 14 14 12 10 9 8 9 9 6 5 6 9 10 9 9 9 9 9 8 8 10 12 13 14 16 18 19 20 19 19 21 23 22 21 21 24 27
11 9 7 4 5 2 3 5 6 7 8 8 8 8 7 7 7 7 8 8 7 6 5 4 7 9 12 15 15 12 9 8 8 8 6 5 7 9 9 8 9 10 10 11 12 11 9 8 9 11 12 14 15 15 15 16 19 20 19 17 18 21 26
10 8 6 2 1 2 3 5 5 6 8 8 8 8 8 8 8 7 7 7 8 8 6 3 4 5 8 13 15 13 11 9 7 6 6 7 8 8 7 8 10 11 11 12 13 13 11 10 10 12 14 14 15 14 13 13 15 18 19 20 20 21 24
9 7 4 1 3 4 5 4 2 3 4 4 5 5 5 6 7 6 7 6 6 6 5 3 1 1 3 8 12 14 15 11 5 3 6 7 6 6 7 9 11 11 10 11 12 14 14 14 15 16 17 18 18 17 15 14 14 16 18 20 21 22 22
7 5 3 2 3 5 4 2 1 2 1 2 2 2 2 2 2 3 5 6 6 6 6 5 4 3 2 3 8 13 15 11 6 4 5 4 4 6 8 9 11 11 10 11 12 15 17 17 17 17 17 18 19 19 18 17 16 16 17 18 18 20 21
5 3 2 1 2 4 4 4 3 3 3 4 4 4 4 2 2 1 2 4 5 6 7 7 6 4 4 2 5 11 15 12 6 5 7 6 7 9 9 9 11 12 13 14 15 16 17 18 18 17 18 18 19 20 20 19 18 18 17 17 16 16 18
4 2 1 2 2 2 3 3 3 4 4 5 5 6 5 4 4 3 3 4 5 6 8 7 6 4 2 1 3 10 14 11 6 8 10 10 10 10 11 12 13 15 15 15 16 17 18 18 18 17 17 18 19 19 20 19 17 16 15 15 17 17 18
3 2 2 2 2 2 2 2 3 4 4 5 7 7 5 4 5 5 5 6 5 5 7 7 6 4 3 2 5 8 10 9 8 11 13 13 13 13 13 14 14 15 16 15 14 15 16 18 18 18 17 17 17 17 18 19 17 16 14 14 16 19 21
3 3 2 1 2 2 2 2 3 4 5 7 9 8 5 4 6 6 4 4 3 3 5 6 6 5 3 3 5 6 7 8 10 13 15 17 18 18 16 13 12 14 16 16 15 15 15 17 18 18 17 17 16 15 16 17 17 17 17 16 16 19 22
1 2 0 2 3 2 2 2 3 4 6 8 11 9 4 4 6 6 4 3 2 2 4 5 6 5 4 3 4 5 7 8 10 12 15 18 20 20 17 15 14 14 15 16 17 17 16 17 18 17 16 17 16 14 14 14 15 16 18 18 18 18 20
2 1 2 3 2 0 1 2 3 5 6 8 10 9 5 4 7 7 5 4 2 2 2 4 5 6 6 7 7 8 10 10 11 12 13 15 18 18 17 16 17 17 17 17 18 18 18 17 18 16 15 15 16 16 15 15 15 16 16 17 19 21 21
Wind_Direction
162 174 176 177 189 193 191 192 189 184 183 184 184 183 184 193 201 205 209 211 210 206 204 205 208 205 202 204 203 201 203 201 191 190 199 203 203 206 207 209 208 205 207 204 198 192 188 187 188 186 188 191 189 187 190 195 195 196 198 203 208 206 204
135 151 167 176 189 191 194 200 196 186 184 187 184 179 181 191 201 206 211 213 213 209 207 209 211 209 206 205 206 203 203 207 203 197 199 202 204 207 208 210 212 212 212 210 208 202 194 193 191 190 191 191 189 190 193 198 201 201 199 202 213 216 209
130 137 144 156 174 184 193 200 198 190 186 189 189 181 181 190 200 208 213 217 215 211 209 211 214 215 211 207 207 207 204 207 208 204 204 205 206 206 208 213 215 216 213 209 218 217 204 204 201 196 200 199 193 194 197 201 204 207 206 202 209 216 214
125 117 116 141 161 176 188 193 196 194 191 194 197 190 186 190 196 204 213 218 216 215 213 213 216 218 218 214 211 211 209 209 210 209 208 211 212 209 209 216 217 213 209 204 216 225 218 218 218 211 209 207 203 199 200 204 207 209 213 209 208 212 210
110 102 102 126 158 181 189 191 194 197 197 199 202 202 196 195 194 195 207 217 218 222 226 220 218 218 220 219 215 214 215 214 214 212 210 213 216 214 212 217 221 218 211 205 211 223 228 225 222 220 219 216 213 206 202 207 209 209 216 216 212 210 207
83 94 100 99 109 151 174 184 192 196 201 201 202 205 202 201 200 195 200 213 216 220 225 223 220 218 219 220 217 217 218 218 218 218 215 214 217 221 218 217 222 224 216 211 215 222 223 223 225 227 227 227 226 215 208 211 212 212 216 218 217 212 209
61 67 97 99 94 107 137 171 185 187 193 193 193 199 200 201 204 201 199 207 212 215 218 221 221 219 218 219 218 217 219 220 220 219 220 217 215 219 222 219 220 224 221 216 221 224 220 220 230 238 236 232 232 229 221 217 217 220 220 219 220 217 216
65 66 79 86 85 94 108 141 170 174 175 181 183 191 197 197 199 200 202 204 208 213 217 220 221 217 214 215 217 218 221 224 223 219 220 221 218 215 218 223 222 222 224 222 224 230 229 224 230 241 244 237 230 230 232 228 222 226 227 222 222 222 224
67 65 69 69 66 79 95 105 130 147 158 172 178 182 193 201 203 203 203 199 199 206 212 215 218 216 210 208 212 215 218 225 231 228 223 221 221 216 214 221 226 225 225 223 224 234 240 235 233 240 246 243 235 229 231 235 233 232 235 229 226 227 230
65 62 65 67 64 72 90 97 109 125 141 157 162 164 179 194 203 209 206 199 196 203 208 212 214 211 207 208 210 210 210 217 227 235 236 230 226 223 217 218 225 229 228 222 221 229 239 242 241 245 250 249 245 236 228 233 238 243 248 244 235 232 231
73 68 64 66 67 74 90 96 101 111 126 142 146 146 158 170 174 176 186 195 202 209 213 217 213 204 203 209 212 211 209 210 215 223 229 228 224 226 226 224 225 230 233 229 223 224 233 242 242 242 248 253 251 244 234 231 236 241 249 254 249 242 235
83 78 71 68 66 66 73 80 84 95 111 124 130 131 135 138 133 121 117 140 182 205 215 224 222 209 203 206 208 209 209 209 211 215 219 218 213 211 215 222 227 231 238 241 234 226 226 236 245 245 246 252 254 250 241 235 237 240 246 253 255 252 248
82 76 71 69 67 63 62 61 58 71 100 109 112 117 118 116 117 118 112 108 123 163 177 185 203 208 209 209 209 210 210 209 210 213 217 217 213 208 207 208 211 219 234 245 246 241 231 229 238 247 249 252 253 254 249 242 241 242 243 248 254 255 254
94 83 73 69 68 66 64 61 54 55 72 98 102 100 99 102 109 120 122 114 112 130 130 118 145 171 182 206 214 214 216 217 215 215 219 221 217 216 213 210 208 208 219 232 236 239 241 234 233 241 248 253 254 255 255 252 250 247 243 243 248 252 253
101 94 83 73 69 65 67 67 59 57 60 65 79 98 92 79 64 64 100 147 153 138 92 77 118 150 157 183 218 223 222 225 226 224 225 226 223 221 220 219 217 213 212 224 226 224 228 230 229 233 242 249 253 255 255 256 257 255 249 243 242 245 248
94 88 83 77 71 64 64 67 63 59 58 58 65 86 89 70 61 64 77 136 186 189 119 71 104 134 137 141 171 223 223 224 228 228 229 229 228 228 228 226 225 221 216 224 231 225 223 222 221 227 237 243 248 253 255 257 262 264 260 252 246 244 244
93 87 81 76 73 66 62 65 66 64 61 59 64 71 71 66 66 71 75 81 95 133 183 111 100 126 131 130 128 146 216 217 221 224 226 230 229 230 230 228 229 229 225 227 234 235 232 228 221 223 233 241 245 248 252 256 261 266 269 265 257 251 248
92 91 86 79 75 71 66 64 66 68 66 63 66 69 68 65 66 71 73 72 75 83 100 106 90 107 128 140 144 345 275 230 220 221 223 227 228 227 228 229 230 234 236 235 234 234 237 239 234 227 227 236 245 247 249 253 258 262 267 269 267 261 256
92 92 89 84 79 77 75 70 67 68 67 66 66 68 70 67 67 71 70 62 62 68 75 80 79 72 77 115 186 254 265 240 228 228 227 229 229 225 225 227 229 235 240 238 232 231 234 241 242 236 227 228 237 243 244 249 255 259 261 265 269 270 265
97 96 95 89 81 81 80 75 70 68 67 67 65 65 72 74 72 70 63 51 52 62 68 71 72 67 64 66 57 311 272 239 228 226 232 241 243 240 237 232 230 234 240 238 234 235 236 236 238 239 233 228 230 233 235 239 246 251 255 258 263 267 266
101 99 99 89 79 81 80 72 69 68 66 66 64 58 61 73 78 76 67 53 46 55 62 64 65 65 66 68 67 56 44 24 284 241 233 234 243 250 250 247 245 244 247 246 239 238 238 235 236 239 236 231 228 229 229 232 238 242 245 249 254 257 257
100 97 95 85 74 78 80 70 65 63 60 63 65 60 54 57 69 76 72 59 44 46 56 58 58 61 65 69 70 60 48 42 36 4 266 243 242 244 243 243 243 243 246 245 240 236 236 235 236 238 236 231 229 228 228 230 235 239 242 244 247 249 250
101 98 95 86 73 73 80 76 66 55 52 61 64 63 59 53 52 58 62 59 45 38 46 52 52 52 54 60 64 57 45 43 47 46 33 297 254 250 247 245 245 245 247 244 240 236 234 233 234 235 233 230 230 231 230 229 232 236 241 244 246 247 248
101 97 95 89 75 69 76 80 70 52 46 61 60 53 50 43 34 34 41 48 42 29 30 39 42 43 44 45 50 51 47 46 49 47 40 30 1 293 262 251 249 255 261 259 251 244 238 233 233 235 233 232 232 233 234 234 234 235 239 243 246 249 250
95 84 82 85 78 73 74 82 77 58 51 62 57 43 35 24 17 21 33 46 43 27 22 24 25 31 36 37 39 42 46 50 52 45 35 25 17 9 341 291 264 259 262 263 261 254 245 238 235 236 236 237 237 237 238 238 237 238 239 242 244 247 250
107 80 68 69 77 85 83 83 85 70 61 61 49 27 14 11 10 20 41 54 50 35 26 16 12 16 20 25 34 36 37 45 50 47 34 16 9 12 10 358 325 286 270 261 259 260 254 244 239 237 237 238 241 242 243 245 244 242 242 244 245 247 249
127 93 67 60 65 93 86 72 78 71 60 53 31 10 8 13 15 26 44 54 53 49 37 13 5 6 4 8 21 26 27 34 40 42 37 16 2 357 1 8 10 359 332 290 271 267 262 254 250 246 242 240 242 244 246 249 251 249 248 248 250 251 253
120 99 80 57 29 42 37 1 3 13 8 358 352 349 356 6 6 12 27 32 38 51 46 20 10 3 355 355 2 9 18 26 29 32 34 22 3 347 346 358 7 8 6 354 334 312 286 271 268 267 260 253 252 253 253 256 259 262 263 264 263 262 260
124 114 107 66 17 337 285 309 328 338 341 342 342 338 338 345 347 354 6 6 4 10 18 30 28 8 348 343 346 353 6 19 28 30 19 4 357 346 344 355 359 356 354 349 346 346 333 305 290 289 283 273 265 263 263 264 264 264 268 271 270 265 261
126 131 137 117 350 263 273 296 314 334 345 351 353 348 342 340 340 348 358 357 359 5 7 29 50 24 347 337 337 337 343 359 25 29 354 339 341 337 334 341 343 343 345 344 342 343 340 330 317 310 305 296 284 275 270 270 265 257 253 254 256 257 256
134 135 137 199 251 266 279 286 312 1 356 353 0 5 0 353 350 352 351 343 345 355 353 349 40 51 351 339 333 327 329 342 13 15 332 326 324 318 318 327 334 339 342 338 331 325 323 322 320 317 315 313 306 294 281 275 273 262 249 246 251 255 259
137 141 152 198 293 314 313 306 21 40 356 338 350 351 342 342 356 4 352 332 317 316 318 314 301 263 243 334 331 320 321 335 0 352 323 307 291 298 306 317 325 329 328 325 320 317 317 319 322 322 320 320 319 313 300 289 284 277 259 245 247 255 261
130 150 181 241 326 4 32 33 8 353 357 2 354 335 321 309 301 316 333 333 334 333 326 323 320 288 245 257 317 309 313 327 341 316 292 272 266 283 296 306 312 313 316 321 322 321 321 322 326 329 328 325 324 322 316 307 301 295 280 257 248 253 256
144 151 29 13 14 47 59 29 356 359 5 355 335 324 326 346 360 2 3 7 12 358 341 339 348 337 289 267 311 308 312 319 307 277 276 272 270 280 292 300 304 305 310 318 322 322 323 324 326 330 331 329 327 325 323 319 314 311 300 274 258 258 260
148 86 55 63 59 51 39 1 345 349 342 329 325 321 325 5 27 29 23 17 14 1 348 342 341 338 328 333 322 307 302 297 278 273 282 286 286 293 298 298 300 303 307 311 316 320 321 319 321 327 329 329 328 325 322 320 317 312 305 287 268 263 265
137 97 90 109 88 51 28 359 329 324 323 324 326 323 327 19 31 21 9 4 3 348 335 323 314 310 309 330 323 296 272 267 272 281 291 297 302 309 309 301 298 304 308 309 312 316 316 314 316 322 325 325 325 321 315 315 314 305 297 290 279 269 267
142 138 101 63 78 68 23 357 330 323 326 326 329 334 355 40 29 11 345 328 337 321 299 292 295 293 282 292 309 288 268 269 277 285 294 301 307 313 313 306 301 304 308 313 316 317 314 312 312 316 323 324 321 315 311 311 308 300 293 290 289 284 277
153 129 59 58 71 6 348 26 5 341 331 324 327 340 5 24 17 9 347 319 310 302 293 294 295 291 281 279 284 283 278 278 282 288 295 299 300 304 310 311 310 311 313 315 318 317 313 312 310 311 319 326 321 315 314 312 305 299 295 291 289 290 289